EW0322 Weather Reports


Display with metric or nautical units.
time (UTC)temp
F
wind
direction
speed
MPH
gust
MPH
rain 1hr
in
rain 24hr
in
rain mn
in
humidity
%
barometer
mb
20260502151554 54 68 3.0 9.0 0.00 0.00 0.00 57 1019.2
20260502123024 51 68 1.0 10.0 0.00 0.00 0.00 67 1017.4
20260502121513 52 71 0.0 8.0 0.00 0.00 0.00 68 1017.3
20260502114511 52 71 2.0 9.0 0.00 0.01 0.00 69 1017.2
20260502113009 51 70 2.0 10.0 0.00 0.01 0.00 70 1017.2
20260502111511 51 71 1.0 5.0 0.00 0.01 0.00 70 1017.2
20260502110014 51 71 0.0 3.0 0.00 0.01 0.00 69 1017.2
20260502104506 51 71 0.0 5.0 0.00 0.01 0.00 69 1017.2
20260502103005 51 71 0.0 4.0 0.00 0.01 0.00 69 1017.1
20260502101504 52 71 1.0 6.0 0.00 0.01 0.00 68 1017.1
20260502090123 52 71 0.0 0.0 0.00 0.05 0.00 66 1017.0
20260502070047 53 63 6.0 13.0 0.00 0.23 0.00 64 1015.1
20260502064537 53 64 2.0 15.0 0.00 0.23 0.00 63 1015.2
20260502063035 53 67 6.0 14.0 0.00 0.23 0.00 62 1014.9
20260502061537 54 65 5.0 13.0 0.00 0.23 0.00 62 1014.8
20260502060029 54 67 3.0 9.0 0.00 0.23 0.00 62 1014.8
20260502054526 54 67 3.0 10.0 0.00 0.23 0.23 62 1015.0
20260502053025 54 67 3.0 11.0 0.00 0.23 0.23 62 1014.8
20260502051525 54 67 5.0 10.0 0.00 0.23 0.23 62 1014.5
20260502050026 54 71 4.0 11.0 0.00 0.23 0.23 62 1014.4
20260502044520 54 71 3.0 11.0 0.00 0.23 0.23 61 1014.3
20260502043021 54 74 4.0 11.0 0.00 0.23 0.23 61 1014.1
20260502041522 54 74 6.0 11.0 0.00 0.23 0.23 60 1014.0
20260502040014 55 59 5.0 15.0 0.00 0.23 0.23 59 1013.7
20260502034511 55 50 5.0 12.0 0.00 0.23 0.23 59 1013.7
20260502033019 55 49 5.0 12.0 0.00 0.23 0.23 59 1013.8
20260502031507 55 49 5.0 13.0 0.00 0.23 0.23 59 1013.8
20260502030004 56 51 4.0 12.0 0.00 0.23 0.23 59 1013.5
20260502024502 56 58 5.0 12.0 0.00 0.23 0.23 59 1013.1
20260502023100 57 58 6.0 14.0 0.00 0.23 0.23 58 1012.8
20260502021605 57 56 3.0 13.0 0.00 0.23 0.23 57 1012.3
20260502020054 59 45 4.0 15.0 0.00 0.23 0.23 56 1011.9
20260502014553 59 48 3.0 10.0 0.00 0.23 0.23 55 1011.4
20260502013051 59 45 5.0 12.0 0.00 0.23 0.23 54 1011.1
20260502011548 60 63 4.0 12.0 0.00 0.23 0.23 53 1010.8
20260502010047 61 47 5.0 14.0 0.00 0.23 0.23 53 1010.6
20260502004545 62 43 6.0 14.0 0.00 0.23 0.23 52 1010.5
20260502003045 63 44 5.0 11.0 0.00 0.23 0.23 50 1010.4
20260502001542 63 42 6.0 13.0 0.00 0.23 0.23 50 1010.2
20260502000041 63 42 6.0 12.0 0.00 0.23 0.23 49 1009.9
20260501234539 64 40 3.0 13.0 0.00 0.23 0.23 48 1009.8
20260501233037 65 34 3.0 13.0 0.00 0.23 0.23 48 1009.6
20260501231534 64 46 4.0 11.0 0.00 0.23 0.23 49 1009.3
20260501230034 64 46 4.0 13.0 0.00 0.23 0.23 49 1009.2
20260501224534 64 43 6.0 10.0 0.00 0.23 0.23 49 1009.0
20260501223034 64 44 6.0 14.0 0.00 0.23 0.23 50 1009.0
20260501221534 64 44 6.0 13.0 0.00 0.23 0.23 50 1008.8
20260501220031 64 34 7.0 13.0 0.00 0.23 0.23 50 1008.9
20260501214529 64 34 4.0 13.0 0.00 0.23 0.23 51 1009.1
20260501213026 63 34 5.0 12.0 0.00 0.23 0.23 53 1009.1
20260501211524 62 38 4.0 10.0 0.00 0.23 0.23 54 1009.3
20260501210024 62 38 5.0 9.0 0.00 0.23 0.23 55 1009.5
20260501204523 62 37 3.0 14.0 0.00 0.23 0.23 55 1009.4
20260501203021 62 37 5.0 11.0 0.00 0.23 0.23 56 1009.4
20260501201519 62 37 6.0 11.0 0.00 0.23 0.23 57 1009.3
20260501200021 62 30 3.0 13.0 0.00 0.23 0.23 59 1009.1
20260501194518 62 36 4.0 15.0 0.00 0.23 0.23 60 1009.0
20260501193020 62 31 5.0 14.0 0.00 0.23 0.23 63 1008.9
20260501191614 60 33 7.0 15.0 0.00 0.23 0.23 65 1008.8
20260501190013 60 34 6.0 14.0 0.00 0.23 0.23 67 1008.8
20260501184520 59 34 4.0 17.0 0.00 0.23 0.23 69 1008.7
20260501183015 61 325 1.0 10.0 0.00 0.23 0.23 71 1008.5
20260501181510 59 325 2.0 9.0 0.00 0.23 0.23 73 1008.6
20260501180016 59 325 1.0 10.0 0.00 0.23 0.23 73 1008.7
20260501174531 58 327 3.0 11.0 0.00 0.23 0.23 72 1008.7
20260501173008 59 315 3.0 9.0 0.00 0.23 0.23 71 1008.6
20260501171506 58 294 4.0 10.0 0.00 0.23 0.23 69 1008.5
20260501170004 61 259 4.0 9.0 0.00 0.23 0.23 63 1008.2
20260501164506 61 214 0.0 3.0 0.00 0.23 0.23 61 1007.9
20260501163002 61 213 3.0 6.0 0.00 0.23 0.23 62 1007.7
20260501161600 62 213 3.0 7.0 0.00 0.23 0.23 64 1007.7
20260501160105 61 205 0.0 2.0 0.00 0.23 0.23 66 1007.6
20260501154603 61 205 0.0 3.0 0.00 0.23 0.23 70 1007.5
20260501153054 60 205 0.0 5.0 0.00 0.23 0.23 73 1007.1